Weather in Obor

Russia / Khabarovsk Krai     48°05′39″N   135°41′15″E
temp.,
°C
wind,
m/s
gust,
m/s
humid.,
%
clouds,
%
prec.,
mm/h
press.,
hPa
HPBL,
m
17 may, mon
mon1701:00+10ssw376810 0.0 1001124
04:00+8s24744 0.0 100180
07:00+10ssw267128 0.0 1002163
10:00+18wsw23470 0.0 1002583
13:00+22w34310 0.0 10021933
16:00+23w35270 0.0 10012370
19:00+20sw24460 0.0 100190
22:00+14s36540 0.0 100285
18 may, tue
tue1801:00+13s311615 0.0 1002201
04:00+12s4116595 0.0 1003246
07:00+14s412600 0.0 1003339
10:00+22ssw510385 0.0 1003953
13:00+27sw6102684 0.0 10012513
16:00+27sw5929100 0.0 10002583
19:00+23ssw5113898 0.0 10011030
22:00+19s515454 0.0 1001559
19 may, wed
wed1901:00+18s515482 0.0 1001585
04:00+13ssw26643 0.0 1002107
07:00+15ssw2759100 0.0 1004381
10:00+19sw344696 0.0 1003956
13:00+22w464270 0.0 10021457
16:00+23wnw574592 0.0 10021831
19:00+17ssw2379100 0.6 100367
22:00+13s23873 0.7 100649
20 may, thu
thu2001:00+12s229517 0.0 100733
04:00+11sse11964 0.0 100810
07:00+14se238826 0.0 1007117
10:00+21s585686 0.0 10051079
13:00+27sw594021 0.0 10042121
16:00+27wsw69405 0.0 10042065
19:00+24wsw395310 0.0 1004587
22:00+18s38712 0.0 1005154
21 may, fri
fri2101:00+16s388435 0.0 1006138
04:00+15s25874 0.0 100690
07:00+17s2577100 0.0 1006148
10:00+24sw124494 0.0 1006777
13:00+28n3236100 0.0 10041456
16:00+27n4445100 0.0 10021108
19:00+21se1472100 0.9 1003140
22:00+15nw1194100 2.3 100425